Location: Unspecified
(0.0000°N, 0.0000°E)
Time: 22:01:56
(UTC+00:00)

STARLINK-31932 - Visible Passes

Search period start: 20 June 2025 00:00
Search period end: 30 June 2025 00:00
Orbit: 482 x 484 km, 43.0° (Epoch: 20 June)

Date Brightness Start Highest point End Pass type
(mag) Time Alt. Az. Time Alt. Az. Time Alt. Az.
20 Jun ? 19:37:14 10° W 19:39:35 16° SW 19:40:28 15° SSW visible
21 Jun ? 19:09:24 10° W 19:11:51 16° SW 19:14:18 10° S visible
22 Jun ? 05:15:55 10° SSW 05:19:13 29° SE 05:22:31 10° ENE visible
22 Jun ? 18:41:35 10° W 18:44:07 17° SW 18:46:40 10° S visible
23 Jun ? 04:49:16 16° S 04:51:30 27° SE 04:54:45 10° ENE visible
24 Jun ? 04:23:19 25° SSE 04:23:47 26° SE 04:26:59 10° ENE visible
25 Jun ? 03:57:22 21° ESE 03:57:22 21° ESE 03:59:15 10° ENE visible
25 Jun ? 05:32:11 10° W 05:34:54 19° NW 05:37:36 10° N visible
26 Jun ? 03:31:23 11° E 03:31:23 11° E 03:31:31 10° E visible
26 Jun ? 05:05:39 16° WNW 05:07:12 20° NW 05:09:59 10° N visible
27 Jun ? 04:39:38 20° NW 04:39:38 20° NW 04:42:23 10° N visible
28 Jun ? 04:13:34 16° N 04:13:34 16° N 04:14:47 10° N visible
